Location: Oshawa
(43.9000°N, 78.8670°W)
Time: 03:28:12
(UTC-04:00)

Cosmos 1707 Rocket - Visible Passes

Search period start: 26 May 2017 00:00
Search period end: 05 June 2017 00:00
Orbit: 604 x 633 km, 82.5° (Epoch: 25 May)

Date Brightness Start Highest point End Pass type
(mag) Time Alt. Az. Time Alt. Az. Time Alt. Az.
26 May 5.8 02:59:58 10° NNE 03:03:26 22° ENE 03:06:54 10° SE visible
26 May 4.3 04:37:25 10° NNW 04:41:20 33° W 04:45:16 10° SSW visible
27 May 4.8 03:16:42 10° N 03:20:50 39° ENE 03:24:57 10° SSE visible
27 May 5.1 04:55:19 10° NW 04:58:22 19° W 05:01:26 10° SW visible
28 May 3.7 03:33:44 10° N 03:38:08 74° E 03:41:37 16° SSE visible
29 May 6.2 02:14:49 10° NE 02:17:03 14° ENE 02:19:17 10° E visible
29 May 3.6 03:51:01 10° NNW 03:55:19 59° W 03:58:16 20° S visible
30 May 5.6 02:31:00 10° NNE 02:34:33 23° ENE 02:37:52 11° SE visible
30 May 4.4 04:08:32 10° NNW 04:12:26 32° W 04:14:58 18° SW visible
31 May 4.6 02:47:46 10° N 02:51:56 41° ENE 02:54:36 20° SE visible
31 May 5.2 04:26:28 10° NW 04:29:27 18° W 04:31:43 13° WSW visible
01 Jun 3.6 03:04:49 10° N 03:09:13 77° E 03:11:22 30° SSE visible
02 Jun 6.1 01:45:47 10° NE 01:48:11 14° ENE 01:50:34 10° E visible
02 Jun 3.7 03:22:05 10° NNW 03:26:25 57° W 03:28:09 33° SSW visible
03 Jun 5.4 02:02:02 10° NNE 02:05:39 24° ENE 02:07:52 17° ESE visible
03 Jun 4.5 03:39:39 10° NNW 03:43:31 31° W 03:45:00 25° SW visible
04 Jun 4.5 02:18:49 10° N 02:23:03 43° ENE 02:24:43 30° SE visible
04 Jun 5.3 03:57:37 10° NW 04:00:33 18° W 04:01:51 16° WSW visible
